map of ESK home
Great Circle Mapper logo
ESK - Airport
Location
City:  Eskisehir, Turkey
ICAO / IATA:LTBI / ESK

Details
Type:Airport (Aerodrome, Airfield)
Use:Military
Latitude:3947'03"N (39.784138)
Longitude:3034'56"E (30.582111)
Datum:WGS 1984
Elevation:2581 ft (787 m)
Runways:1
Longest:10006 × 150 ft (3050 × 45.5 m), paved

Time
Time Zone:UTC+2 (DST+3)
Local Time:

Weather
METAR:LTBI 241503Z 07010KT 9999 -SHRA BKN030 15/12 Q1014 NOSIG RMK RWY09 09012KT

Related Locations
Nearby:
Farthest:NTAV: 11330 mi / 18233 km
Raivavae, Tubuai Islands, Austral Islands, PF

Find:

   beyond  
but within

Other Information
Maps:
NOTAMs:
Links:
Sources:

  
flag of Turkey   

Sectional Chart

Flight Planning
at skyvector.com

Satellite Image

Google Maps Satellite View

 

Copyright © 2004-2014 Karl L. Swartz. All rights reserved.
The Great Circle Mapper name and logo are trademarks of the Great Circle Mapper.
All other trademarks mentioned herein belong to their respective owners.
Please see credits for attibutions and further copyright information.

  Follow gcmap on Facebook Follow gcmap on Twitter

hCard Microformat

Geo Microformat